Flag for Kazakhstan Weather past 2 weeks in Almaty, Kazakhstan

Now
61 °F

Mostly cloudy.


Feels Like: 61 °F
Forecast: 56 / 70 °F
Wind: 8 mph from Northwest

Location: Almaty Airport

Current Time: Sep 3, 2015 at 4:13:19 AM

Latest Report: Sep 3, 2015 at 3:30 AM


Visibility: N/A

Pressure: 30.01 "Hg (27.34 "Hg at 790m altitude)

Humidity: 52%

Dew point: 43 °F

Location of AlmatyLocation

Historic Weather in Almaty — Graph

°F

Almaty temperature yesterday

Maximum temperature yesterday: 86 °F (at 2:30 PM)
Minimum temperature yesterday: 54 °F (at 6:30 AM)
Average temperature yesterday: 72 °F

Past Weeks' High & Low Weather Summary

 TemperatureHumidityPressure
High102 °F (Aug 20, 2:30 PM)94% (Aug 27, 6:30 AM)30.15 "Hg (Aug 27, 6:30 AM)
Low50 °F (Aug 27, 6:30 AM)5% (Aug 20, 2:30 PM)29.62 "Hg (Aug 21, 6:30 PM)
Average70 °F44%29.91 "Hg
* Reported Aug 19 2:00 AM — Sep 3 2:30 AM, Almaty, Weather by CustomWeather, © 2015

Note: Actual official high and low records may vary slightly from our data, if they occured in-between our weather recording intervals... More about our weather records

Advertising

Almaty weather history for previous 24 hours

 ConditionsComfort  
Time TempWeatherWind HumidityBarometerVisibility
2:30 AM
Thu, Sep 3
61 °FMostly cloudy.6 mph52%30.01 "HgN/A
2:00 AM63 °FMostly cloudy.8 mph49%29.98 "HgN/A
1:30 AM64 °FMostly cloudy.13 mph46%29.95 "HgN/A
1:00 AM64 °FMostly cloudy.10 mph49%29.95 "HgN/A
12:30 AM66 °FMostly cloudy.15 mph46%29.95 "HgN/A
12:00 AM68 °FMostly cloudy.13 mph40%29.92 "HgN/A
11:30 PM
Wed, Sep 2
68 °FSprinkles. Overcast.17 mph40%29.89 "HgN/A
11:00 PM73 °FMostly cloudy.20 mph27%29.86 "Hg1 mi
10:30 PM77 °FMostly cloudy.13 mph21%29.83 "HgN/A
9:30 PM75 °FMostly cloudy.3 mph34%29.80 "HgN/A
9:00 PM75 °FMostly cloudy.6 mph25%29.77 "HgN/A
8:30 PM75 °FMostly cloudy.3 mph34%29.74 "Hg3 mi
8:00 PM75 °FMostly cloudy.6 mph39%29.74 "Hg3 mi
7:30 PM75 °FPartly cloudy.3 mph44%29.71 "HgN/A
7:00 PM79 °FBroken clouds.1 mph34%29.71 "HgN/A
6:30 PM81 °FBroken clouds.6 mph30%29.71 "HgN/A
6:00 PM82 °FBroken clouds.3 mph25%29.71 "HgN/A
5:30 PM82 °FBroken clouds.6 mph25%29.71 "HgN/A
5:00 PM82 °FBroken clouds.6 mph21%29.71 "HgN/A
4:30 PM84 °FBroken clouds.6 mph18%29.68 "HgN/A
4:00 PM86 °FBroken clouds.8 mph17%29.68 "HgN/A
3:30 PM86 °FBroken clouds.6 mph15%29.71 "HgN/A
3:00 PM86 °FBroken clouds.8 mph12%29.71 "HgN/A
2:30 PM86 °FBroken clouds.6 mph14%29.71 "HgN/A
2:00 PM84 °FBroken clouds.6 mph15%29.74 "HgN/A
1:30 PM84 °FBroken clouds.6 mph16%29.74 "HgN/A
1:00 PM82 °FBroken clouds.6 mph16%29.74 "HgN/A
12:30 PM82 °FBroken clouds.6 mph16%29.77 "HgN/A
12:00 PM82 °FPartly sunny.6 mph14%29.77 "HgN/A
11:30 AM79 °FPartly sunny.3 mph23%29.77 "HgN/A
11:00 AM79 °FPartly sunny.3 mph24%29.80 "HgN/A
10:00 AM73 °FPartly sunny.1 mph31%29.80 "HgN/A
9:30 AM72 °FBroken clouds.3 mph36%29.80 "HgN/A
9:00 AM70 °FBroken clouds.3 mph31%29.80 "HgN/A
8:30 AM66 °FBroken clouds.3 mph43%29.83 "HgN/A
8:00 AM64 °FBroken clouds.1 mph43%29.83 "HgN/A
7:30 AM59 °FBroken clouds.1 mph55%29.83 "HgN/A
7:00 AM57 °FBroken clouds.1 mph55%29.83 "HgN/A
6:30 AM54 °FPartly sunny.3 mph67%29.83 "HgN/A
6:00 AM55 °FPassing clouds.1 mph59%29.83 "HgN/A
5:30 AM57 °FPassing clouds.3 mph51%29.83 "HgN/A
5:00 AM57 °FPassing clouds.3 mph55%29.83 "HgN/A
4:30 AM55 °FPassing clouds.6 mph59%29.83 "HgN/A
Weather by CustomWeather, © 2015

See weather overviewHow to use our weather pages